Year,Month,Day,Hour,Minute,Value (Times are PST for windspeed in km/hr)
2015,11,13,00,00,2.70
2015,11,13,00,01,0.90
2015,11,13,00,02,0.20
2015,11,13,00,03,0.00
2015,11,13,00,04,1.20
2015,11,13,00,05,2.30
2015,11,13,00,06,3.30
2015,11,13,00,07,2.20
2015,11,13,00,08,0.40
2015,11,13,00,09,1.70
2015,11,13,00,10,2.40
2015,11,13,00,11,1.60
2015,11,13,00,12,0.40
2015,11,13,00,13,0.10
2015,11,13,00,14,1.60
2015,11,13,00,15,1.10
2015,11,13,00,16,1.70
2015,11,13,00,17,0.50
2015,11,13,00,18,0.00
2015,11,13,00,19,0.40
2015,11,13,00,20,2.00
2015,11,13,00,21,2.40
2015,11,13,00,22,1.80
2015,11,13,00,23,0.90
2015,11,13,00,24,0.80
2015,11,13,00,25,1.30
2015,11,13,00,26,0.80
2015,11,13,00,27,1.40
2015,11,13,00,28,1.80
2015,11,13,00,29,0.70
2015,11,13,00,30,2.20
2015,11,13,00,31,3.40
2015,11,13,00,32,1.80
2015,11,13,00,33,0.90
2015,11,13,00,34,0.80
2015,11,13,00,35,0.10
2015,11,13,00,36,1.10
2015,11,13,00,37,3.00
2015,11,13,00,38,2.90
2015,11,13,00,39,2.30
2015,11,13,00,40,1.70
2015,11,13,00,41,1.70
2015,11,13,00,42,1.70
2015,11,13,00,43,1.10
2015,11,13,00,44,0.80
2015,11,13,00,45,0.70
2015,11,13,00,46,0.60
2015,11,13,00,47,0.50
2015,11,13,00,48,1.70
2015,11,13,00,49,2.10
2015,11,13,00,50,2.10
2015,11,13,00,51,1.00
2015,11,13,00,52,0.30
2015,11,13,00,53,1.40
2015,11,13,00,54,1.70
2015,11,13,00,55,2.20
2015,11,13,00,56,1.60
2015,11,13,00,57,0.70
2015,11,13,00,58,1.10
2015,11,13,00,59,1.80
2015,11,13,01,00,1.70
2015,11,13,01,01,1.00
2015,11,13,01,02,0.70
2015,11,13,01,03,0.70
2015,11,13,01,04,0.10
2015,11,13,01,05,0.50
2015,11,13,01,06,1.20
2015,11,13,01,07,0.40
2015,11,13,01,08,0.00
2015,11,13,01,09,0.00
2015,11,13,01,10,0.20
2015,11,13,01,11,0.80
2015,11,13,01,12,0.80
2015,11,13,01,13,1.40
2015,11,13,01,14,0.70
2015,11,13,01,15,1.30
2015,11,13,01,16,2.10
2015,11,13,01,17,2.10
2015,11,13,01,18,0.70
2015,11,13,01,19,0.00
2015,11,13,01,20,0.00
2015,11,13,01,21,0.30
2015,11,13,01,22,0.60
2015,11,13,01,23,1.40
2015,11,13,01,24,1.90
2015,11,13,01,25,2.30
2015,11,13,01,26,1.50
2015,11,13,01,27,1.00
2015,11,13,01,28,1.20
2015,11,13,01,29,1.60
2015,11,13,01,30,1.20
2015,11,13,01,31,0.00
2015,11,13,01,32,0.20
2015,11,13,01,33,0.90
2015,11,13,01,34,0.80
2015,11,13,01,35,0.10
2015,11,13,01,36,0.00
2015,11,13,01,37,0.10
2015,11,13,01,38,0.20
2015,11,13,01,39,0.70
2015,11,13,01,40,1.40
2015,11,13,01,41,1.40
2015,11,13,01,42,0.70
2015,11,13,01,43,0.10
2015,11,13,01,44,0.00
2015,11,13,01,45,0.10
2015,11,13,01,46,1.70
2015,11,13,01,47,1.60
2015,11,13,01,48,2.10
2015,11,13,01,49,2.40
2015,11,13,01,50,2.70
2015,11,13,01,51,2.80
2015,11,13,01,52,2.40
2015,11,13,01,53,2.90
2015,11,13,01,54,3.60
2015,11,13,01,55,4.60
2015,11,13,01,56,2.80
2015,11,13,01,57,4.10
2015,11,13,01,58,2.90
2015,11,13,01,59,2.70
2015,11,13,02,00,2.10
2015,11,13,02,01,1.00
2015,11,13,02,02,1.80
2015,11,13,02,03,1.50
2015,11,13,02,04,0.20
2015,11,13,02,05,0.20
2015,11,13,02,06,0.80
2015,11,13,02,07,1.60
2015,11,13,02,08,1.90
2015,11,13,02,09,1.90
2015,11,13,02,10,3.30
2015,11,13,02,11,2.80
2015,11,13,02,12,1.90
2015,11,13,02,13,2.30
2015,11,13,02,14,0.80
2015,11,13,02,15,1.60
2015,11,13,02,16,3.30
2015,11,13,02,17,2.40
2015,11,13,02,18,2.00
2015,11,13,02,19,1.50
2015,11,13,02,20,1.80
2015,11,13,02,21,2.00
2015,11,13,02,22,2.60
2015,11,13,02,23,3.20
2015,11,13,02,24,4.00
2015,11,13,02,25,4.00
2015,11,13,02,26,3.70
2015,11,13,02,27,4.60
2015,11,13,02,28,3.00
2015,11,13,02,29,0.70
2015,11,13,02,30,0.80
2015,11,13,02,31,1.80
2015,11,13,02,32,4.20
2015,11,13,02,33,2.30
2015,11,13,02,34,2.00
2015,11,13,02,35,3.30
2015,11,13,02,36,2.00
2015,11,13,02,37,3.00
2015,11,13,02,38,3.40
2015,11,13,02,39,2.60
2015,11,13,02,40,2.20
2015,11,13,02,41,1.70
2015,11,13,02,42,1.60
2015,11,13,02,43,1.90
2015,11,13,02,44,2.00
2015,11,13,02,45,2.90
2015,11,13,02,46,2.60
2015,11,13,02,47,3.70
2015,11,13,02,48,4.10
2015,11,13,02,49,2.90
2015,11,13,02,50,2.40
2015,11,13,02,51,2.70
2015,11,13,02,52,2.80
2015,11,13,02,53,3.90
2015,11,13,02,54,3.10
2015,11,13,02,55,3.80
2015,11,13,02,56,3.00
2015,11,13,02,57,3.90
2015,11,13,02,58,3.10
2015,11,13,02,59,3.90
2015,11,13,03,00,4.00
2015,11,13,03,01,4.20
2015,11,13,03,02,3.50
2015,11,13,03,03,2.00
2015,11,13,03,05,2.10
2015,11,13,03,06,2.70
2015,11,13,03,07,1.80
2015,11,13,03,08,2.90
2015,11,13,03,09,3.20
2015,11,13,03,10,3.40
2015,11,13,03,11,2.40
2015,11,13,03,12,1.70
2015,11,13,03,13,0.80
2015,11,13,03,14,1.30
2015,11,13,03,15,1.90
2015,11,13,03,16,2.50
2015,11,13,03,17,2.20
2015,11,13,03,18,2.30
2015,11,13,03,19,2.30
2015,11,13,03,20,2.70
2015,11,13,03,21,2.90
2015,11,13,03,22,3.60
2015,11,13,03,23,1.30
2015,11,13,03,24,4.50
2015,11,13,03,25,2.80
2015,11,13,03,26,4.20
2015,11,13,03,27,4.10
2015,11,13,03,28,4.90
2015,11,13,03,29,4.30
2015,11,13,03,30,5.80
2015,11,13,03,31,4.90
2015,11,13,03,32,4.10
2015,11,13,03,33,6.20
2015,11,13,03,34,3.40
2015,11,13,03,35,2.20
2015,11,13,03,36,3.00
2015,11,13,03,37,1.90
2015,11,13,03,38,3.50
2015,11,13,03,39,2.50
2015,11,13,03,40,2.90
2015,11,13,03,41,2.00
2015,11,13,03,42,3.10
2015,11,13,03,43,3.40
2015,11,13,03,44,4.50
2015,11,13,03,45,3.50
2015,11,13,03,46,5.20
2015,11,13,03,47,4.60
2015,11,13,03,48,4.80
2015,11,13,03,49,2.70
2015,11,13,03,50,7.40
2015,11,13,03,51,4.00
2015,11,13,03,52,5.80
2015,11,13,03,53,8.10
2015,11,13,03,54,5.60
2015,11,13,03,55,4.00
2015,11,13,03,56,5.60
2015,11,13,03,57,3.90
2015,11,13,03,58,1.70
2015,11,13,03,59,4.00
2015,11,13,04,00,3.80
2015,11,13,04,01,4.50
2015,11,13,04,02,4.80
2015,11,13,04,03,7.30
2015,11,13,04,04,8.40
2015,11,13,04,05,10.20
2015,11,13,04,06,11.40
2015,11,13,04,07,10.40
2015,11,13,04,08,7.70
2015,11,13,04,09,5.20
2015,11,13,04,10,3.70
2015,11,13,04,11,8.60
2015,11,13,04,12,7.80
2015,11,13,04,13,10.60
2015,11,13,04,14,4.20
2015,11,13,04,15,2.90
2015,11,13,04,16,2.90
2015,11,13,04,17,1.80
2015,11,13,04,18,4.20
2015,11,13,04,19,4.50
2015,11,13,04,20,4.10
2015,11,13,04,21,3.60
2015,11,13,04,22,3.90
2015,11,13,04,23,2.90
2015,11,13,04,24,3.10
2015,11,13,04,25,6.20
2015,11,13,04,26,6.40
2015,11,13,04,27,4.30
2015,11,13,04,28,3.20
2015,11,13,04,29,9.60
2015,11,13,04,30,5.10
2015,11,13,04,31,5.60
2015,11,13,04,32,12.60
2015,11,13,04,33,7.40
2015,11,13,04,34,5.30
2015,11,13,04,35,8.40
2015,11,13,04,36,3.50
2015,11,13,04,37,3.90
2015,11,13,04,38,4.00
2015,11,13,04,39,3.40
2015,11,13,04,40,6.60
2015,11,13,04,41,9.80
2015,11,13,04,42,4.20
2015,11,13,04,43,6.60
2015,11,13,04,44,6.90
2015,11,13,04,45,5.60
2015,11,13,04,46,9.10
2015,11,13,04,47,5.40
2015,11,13,04,48,4.80
2015,11,13,04,49,2.00
2015,11,13,04,50,3.10
2015,11,13,04,51,4.10
2015,11,13,04,52,5.30
2015,11,13,04,53,4.80
2015,11,13,04,54,5.80
2015,11,13,04,55,5.50
2015,11,13,04,56,3.20
2015,11,13,04,57,2.70
2015,11,13,04,58,2.20
2015,11,13,04,59,2.30
2015,11,13,05,00,2.40
2015,11,13,05,01,3.60
2015,11,13,05,02,3.00
2015,11,13,05,03,3.90
2015,11,13,05,04,3.60
2015,11,13,05,05,3.20
2015,11,13,05,06,2.10
2015,11,13,05,07,3.90
2015,11,13,05,08,5.50
2015,11,13,05,09,2.70
2015,11,13,05,10,4.60
2015,11,13,05,11,5.10
2015,11,13,05,12,3.20
2015,11,13,05,13,2.90
2015,11,13,05,14,4.50
2015,11,13,05,15,3.90
2015,11,13,05,16,4.80
2015,11,13,05,17,7.20
2015,11,13,05,18,5.30
2015,11,13,05,19,4.90
2015,11,13,05,20,5.20
2015,11,13,05,21,3.30
2015,11,13,05,22,2.50
2015,11,13,05,23,3.30
2015,11,13,05,24,2.90
2015,11,13,05,25,3.00
2015,11,13,05,26,4.00
2015,11,13,05,27,7.20
2015,11,13,05,28,4.10
2015,11,13,05,29,3.10
2015,11,13,05,30,4.60
2015,11,13,05,31,4.30
2015,11,13,05,32,3.90
2015,11,13,05,33,4.20
2015,11,13,05,34,7.40
2015,11,13,05,35,6.00
2015,11,13,05,36,6.60
2015,11,13,05,37,7.90
2015,11,13,05,38,5.10
2015,11,13,05,39,5.90
2015,11,13,05,40,4.00
2015,11,13,05,41,5.40
2015,11,13,05,42,4.00
2015,11,13,05,43,2.10
2015,11,13,05,44,3.50
2015,11,13,05,45,4.20
2015,11,13,05,46,3.10
2015,11,13,05,47,3.00
2015,11,13,05,48,3.90
2015,11,13,05,49,4.10
2015,11,13,05,50,3.00
2015,11,13,05,51,2.60
2015,11,13,05,52,2.70
2015,11,13,05,53,3.60
2015,11,13,05,54,3.10
2015,11,13,05,55,4.40
2015,11,13,05,56,3.50
2015,11,13,05,57,2.90
2015,11,13,05,58,3.20
2015,11,13,05,59,2.60
2015,11,13,06,00,1.60
2015,11,13,06,01,2.50
2015,11,13,06,02,1.70
2015,11,13,06,03,0.90
2015,11,13,06,04,1.60
2015,11,13,06,05,0.90
2015,11,13,06,06,3.70
2015,11,13,06,07,3.40
2015,11,13,06,08,3.70
2015,11,13,06,09,2.20
2015,11,13,06,10,1.50
2015,11,13,06,11,0.10
2015,11,13,06,12,1.10
2015,11,13,06,13,2.40
2015,11,13,06,14,2.40
2015,11,13,06,15,1.70
2015,11,13,06,16,1.70
2015,11,13,06,17,2.60
2015,11,13,06,18,1.40
2015,11,13,06,19,1.90
2015,11,13,06,20,2.00
2015,11,13,06,21,1.90
2015,11,13,06,22,2.60
2015,11,13,06,23,1.70
2015,11,13,06,24,1.50
2015,11,13,06,25,3.00
2015,11,13,06,26,3.90
2015,11,13,06,27,3.20
2015,11,13,06,28,3.30
2015,11,13,06,29,4.00
2015,11,13,06,30,2.00
2015,11,13,06,31,0.20
2015,11,13,06,32,1.40
2015,11,13,06,33,0.70
2015,11,13,06,34,0.10
2015,11,13,06,35,0.70
2015,11,13,06,36,1.00
2015,11,13,06,37,1.00
2015,11,13,06,38,0.00
2015,11,13,06,39,0.00
2015,11,13,06,40,0.00
2015,11,13,06,41,0.30
2015,11,13,06,42,2.80
2015,11,13,06,43,3.30
2015,11,13,06,44,3.50
2015,11,13,06,45,3.10
2015,11,13,06,46,2.20
2015,11,13,06,47,1.60
2015,11,13,06,48,2.90
2015,11,13,06,49,3.70
2015,11,13,06,50,4.90
2015,11,13,06,51,3.60
2015,11,13,06,52,3.10
2015,11,13,06,53,1.40
2015,11,13,06,54,2.40
2015,11,13,06,55,3.10
2015,11,13,06,56,2.60
2015,11,13,06,57,2.30
2015,11,13,06,58,3.40
2015,11,13,06,59,2.30
2015,11,13,07,00,2.60
2015,11,13,07,01,1.90
2015,11,13,07,02,1.40
2015,11,13,07,03,0.00
2015,11,13,07,04,0.50
2015,11,13,07,05,0.70
2015,11,13,07,06,1.00
2015,11,13,07,07,0.90
2015,11,13,07,08,1.00
2015,11,13,07,09,0.40
2015,11,13,07,10,1.00
2015,11,13,07,11,3.80
2015,11,13,07,12,2.00
2015,11,13,07,13,1.30
2015,11,13,07,14,2.60
2015,11,13,07,15,1.00
2015,11,13,07,16,2.40
2015,11,13,07,17,1.70
2015,11,13,07,18,0.90
2015,11,13,07,19,1.00
2015,11,13,07,20,0.20
2015,11,13,07,21,0.90
2015,11,13,07,22,2.20
2015,11,13,07,23,3.30
2015,11,13,07,24,3.80
2015,11,13,07,25,2.90
2015,11,13,07,26,2.10
2015,11,13,07,27,1.80
2015,11,13,07,28,2.00
2015,11,13,07,29,3.50
2015,11,13,07,30,3.40
2015,11,13,07,31,3.40
2015,11,13,07,32,3.40
2015,11,13,07,33,0.50
2015,11,13,07,34,0.10
2015,11,13,07,35,0.30
2015,11,13,07,36,2.00
2015,11,13,07,37,3.00
2015,11,13,07,38,3.40
2015,11,13,07,39,2.70
2015,11,13,07,40,2.70
2015,11,13,07,41,1.70
2015,11,13,07,42,2.00
2015,11,13,07,43,1.00
2015,11,13,07,44,2.00
2015,11,13,07,45,1.00
2015,11,13,07,46,0.90
2015,11,13,07,47,0.10
2015,11,13,07,48,0.10
2015,11,13,07,49,0.80
2015,11,13,07,50,0.10
2015,11,13,07,51,0.10
2015,11,13,07,52,1.20
2015,11,13,07,53,1.40
2015,11,13,07,54,1.70
2015,11,13,07,55,0.50
2015,11,13,07,56,0.70
2015,11,13,07,57,1.90
2015,11,13,07,58,2.40
2015,11,13,07,59,1.10
2015,11,13,08,00,1.70
2015,11,13,08,01,2.30
2015,11,13,08,02,2.10
2015,11,13,08,03,1.10
2015,11,13,08,04,0.80
2015,11,13,08,05,0.80
2015,11,13,08,06,1.00
2015,11,13,08,07,1.40
2015,11,13,08,08,1.40
2015,11,13,08,09,2.00
2015,11,13,08,10,1.60
2015,11,13,08,11,1.70
2015,11,13,08,12,1.80
2015,11,13,08,13,1.40
2015,11,13,08,14,1.30
2015,11,13,08,15,1.30
2015,11,13,08,16,1.10
2015,11,13,08,17,1.50
2015,11,13,08,18,0.80
2015,11,13,08,19,1.00
2015,11,13,08,20,0.30
2015,11,13,08,21,0.10
2015,11,13,08,22,0.00
2015,11,13,08,23,0.10
2015,11,13,08,24,0.10
2015,11,13,08,25,0.70
2015,11,13,08,26,0.00
2015,11,13,08,27,0.00
2015,11,13,08,28,0.00
2015,11,13,08,29,1.00
2015,11,13,08,30,1.00
2015,11,13,08,31,0.30
2015,11,13,08,32,0.60
2015,11,13,08,33,1.50
2015,11,13,08,34,2.10
2015,11,13,08,35,2.00
2015,11,13,08,36,2.30
2015,11,13,08,37,1.00
2015,11,13,08,38,2.70
2015,11,13,08,39,3.30
2015,11,13,08,40,5.00
2015,11,13,08,41,4.30
2015,11,13,08,42,2.60
2015,11,13,08,43,2.80
2015,11,13,08,44,1.80
2015,11,13,08,45,1.10
2015,11,13,08,46,2.50
2015,11,13,08,47,3.40
2015,11,13,08,48,3.30
2015,11,13,08,49,2.70
2015,11,13,08,50,2.20
2015,11,13,08,51,1.40
2015,11,13,08,52,0.80
2015,11,13,08,53,0.90
2015,11,13,08,54,0.80
2015,11,13,08,55,2.50
2015,11,13,08,56,4.20
2015,11,13,08,57,4.20
2015,11,13,08,58,3.60
2015,11,13,08,59,2.00
2015,11,13,09,00,0.50
2015,11,13,09,01,0.80
2015,11,13,09,02,0.20
2015,11,13,09,03,1.10
2015,11,13,09,04,1.90
2015,11,13,09,05,1.10
2015,11,13,09,06,0.30
2015,11,13,09,07,0.60
2015,11,13,09,08,0.40
2015,11,13,09,09,0.80
2015,11,13,09,10,0.70
2015,11,13,09,11,0.80
2015,11,13,09,12,1.00
2015,11,13,09,13,0.90
2015,11,13,09,14,1.90
2015,11,13,09,15,1.10
2015,11,13,09,16,0.20
2015,11,13,09,17,0.00
2015,11,13,09,18,0.00
2015,11,13,09,19,0.30
2015,11,13,09,20,0.00
2015,11,13,09,21,0.50
2015,11,13,09,22,0.50
2015,11,13,09,23,0.20
2015,11,13,09,24,0.50
2015,11,13,09,25,0.50
2015,11,13,09,26,0.00
2015,11,13,09,27,0.00
2015,11,13,09,28,0.20
2015,11,13,09,29,1.00
2015,11,13,09,30,1.00
2015,11,13,09,31,1.70
2015,11,13,09,32,3.30
2015,11,13,09,33,3.30
2015,11,13,09,34,2.60
2015,11,13,09,35,1.60
2015,11,13,09,36,0.70
2015,11,13,09,37,1.50
2015,11,13,09,38,0.90
2015,11,13,09,39,0.70
2015,11,13,09,40,1.90
2015,11,13,09,41,0.70
2015,11,13,09,42,0.20
2015,11,13,09,43,0.50
2015,11,13,09,44,0.70
2015,11,13,09,45,0.90
2015,11,13,09,46,0.50
2015,11,13,09,47,0.30
2015,11,13,09,48,0.20
2015,11,13,09,49,0.10
2015,11,13,09,50,0.60
2015,11,13,09,51,0.80
2015,11,13,09,52,0.20
2015,11,13,09,53,0.10
2015,11,13,09,54,0.20
2015,11,13,09,55,0.50
2015,11,13,09,56,1.40
2015,11,13,09,57,1.10
2015,11,13,09,58,2.40
2015,11,13,09,59,2.60
2015,11,13,10,00,1.60
2015,11,13,10,01,1.50
2015,11,13,10,02,2.10
2015,11,13,10,03,1.60
2015,11,13,10,04,1.90
2015,11,13,10,05,0.40
2015,11,13,10,06,0.10
2015,11,13,10,07,0.90
2015,11,13,10,08,1.20
2015,11,13,10,09,0.90
2015,11,13,10,10,1.10
2015,11,13,10,11,1.40
2015,11,13,10,12,0.50
2015,11,13,10,13,0.70
2015,11,13,10,14,0.30
2015,11,13,10,15,0.00
2015,11,13,10,16,0.10
2015,11,13,10,17,0.50
2015,11,13,10,18,0.50
2015,11,13,10,19,0.00
2015,11,13,10,20,1.00
2015,11,13,10,21,1.70
2015,11,13,10,22,1.40
2015,11,13,10,23,1.10
2015,11,13,10,24,1.90
2015,11,13,10,25,1.70
2015,11,13,10,26,1.40
2015,11,13,10,27,0.80
2015,11,13,10,28,2.60
2015,11,13,10,29,2.50
2015,11,13,10,30,1.60
2015,11,13,10,31,2.60
2015,11,13,10,32,1.70
2015,11,13,10,33,1.50
2015,11,13,10,34,1.30
2015,11,13,10,35,0.80
2015,11,13,10,36,1.80
2015,11,13,10,37,2.00
2015,11,13,10,38,0.80
2015,11,13,10,39,1.00
2015,11,13,10,40,1.50
2015,11,13,10,41,1.10
2015,11,13,10,42,1.10
2015,11,13,10,43,0.90
2015,11,13,10,44,1.10
2015,11,13,10,45,1.00
2015,11,13,10,46,1.90
2015,11,13,10,47,2.90
2015,11,13,10,48,3.30
2015,11,13,10,49,2.20
2015,11,13,10,50,1.80
2015,11,13,10,51,1.50
2015,11,13,10,52,0.80
2015,11,13,10,53,1.70
2015,11,13,10,54,3.20
2015,11,13,10,55,4.70
2015,11,13,10,56,3.50
2015,11,13,10,57,3.50
2015,11,13,10,58,5.20
2015,11,13,10,59,4.00
2015,11,13,11,00,3.40
2015,11,13,11,01,3.50
2015,11,13,11,02,4.10
2015,11,13,11,03,5.30
2015,11,13,11,04,4.90
2015,11,13,11,05,5.10
2015,11,13,11,06,6.30
2015,11,13,11,07,5.70
2015,11,13,11,08,4.60
2015,11,13,11,09,3.50
2015,11,13,11,10,3.30
2015,11,13,11,11,3.90
2015,11,13,11,12,3.10
2015,11,13,11,13,3.90
2015,11,13,11,14,4.10
2015,11,13,11,15,3.60
2015,11,13,11,16,3.00
2015,11,13,11,17,3.70
2015,11,13,11,18,3.00
2015,11,13,11,19,3.70
2015,11,13,11,20,5.80
2015,11,13,11,21,5.20
2015,11,13,11,22,5.30
2015,11,13,11,23,6.30
2015,11,13,11,24,5.70
2015,11,13,11,25,4.30
2015,11,13,11,26,4.90
2015,11,13,11,27,5.80
2015,11,13,11,28,5.10
2015,11,13,11,29,4.90
2015,11,13,11,30,7.10
2015,11,13,11,31,4.90
2015,11,13,11,32,4.50
2015,11,13,11,33,5.60
2015,11,13,11,34,4.40
2015,11,13,11,35,3.40
2015,11,13,11,36,4.30
2015,11,13,11,37,3.40
2015,11,13,11,38,3.90
2015,11,13,11,39,3.50
2015,11,13,11,40,2.60
2015,11,13,11,41,3.70
2015,11,13,11,42,2.70
2015,11,13,11,43,3.00
2015,11,13,11,44,3.50
2015,11,13,11,45,3.80
2015,11,13,11,46,2.00
2015,11,13,11,47,1.40
2015,11,13,11,48,2.70
2015,11,13,11,49,2.30
2015,11,13,11,50,2.30
2015,11,13,11,51,2.40
2015,11,13,11,52,1.90
2015,11,13,11,53,1.60
2015,11,13,11,54,1.30
2015,11,13,11,55,1.90
2015,11,13,11,56,2.60
2015,11,13,11,57,3.40
2015,11,13,11,58,4.20
2015,11,13,11,59,3.00
2015,11,13,12,00,2.50
2015,11,13,12,01,1.00
2015,11,13,12,02,1.00
2015,11,13,12,03,1.30
2015,11,13,12,04,2.00
2015,11,13,12,05,2.90
2015,11,13,12,06,0.80
2015,11,13,12,07,0.80
2015,11,13,12,08,1.40
2015,11,13,12,09,1.50
2015,11,13,12,10,0.40
2015,11,13,12,11,0.00
2015,11,13,12,12,0.20
2015,11,13,12,13,0.20
2015,11,13,12,14,0.00
2015,11,13,12,15,0.00
2015,11,13,12,16,0.80
2015,11,13,12,17,3.00
2015,11,13,12,18,2.20
2015,11,13,12,19,0.90
2015,11,13,12,20,1.70
2015,11,13,12,21,1.60
2015,11,13,12,22,1.90
2015,11,13,12,23,2.50
2015,11,13,12,24,2.70
2015,11,13,12,25,2.80
2015,11,13,12,26,2.30
2015,11,13,12,27,2.70
2015,11,13,12,28,3.60
2015,11,13,12,29,3.00
2015,11,13,12,30,2.60
2015,11,13,12,31,4.20
2015,11,13,12,32,3.70
2015,11,13,12,33,2.30
2015,11,13,12,34,3.90
2015,11,13,12,35,2.70
2015,11,13,12,36,1.50
2015,11,13,12,37,2.40
2015,11,13,12,38,2.50
2015,11,13,12,39,2.00
2015,11,13,12,40,1.40
2015,11,13,12,41,1.90
2015,11,13,12,42,0.50
2015,11,13,12,43,0.00
2015,11,13,12,44,1.10
2015,11,13,12,45,1.30
2015,11,13,12,46,2.60
2015,11,13,12,47,2.50
2015,11,13,12,48,2.80
2015,11,13,12,49,3.50
2015,11,13,12,50,3.20
2015,11,13,12,51,2.90
2015,11,13,12,52,1.50
2015,11,13,12,53,1.90
2015,11,13,12,54,2.60
2015,11,13,12,55,2.00
2015,11,13,12,56,0.80
2015,11,13,12,57,0.20
2015,11,13,12,58,2.00
2015,11,13,12,59,2.40
2015,11,13,13,00,2.80
2015,11,13,13,01,2.60
2015,11,13,13,02,2.90
2015,11,13,13,03,1.70
2015,11,13,13,04,3.20
2015,11,13,13,05,1.60
2015,11,13,13,06,1.20
2015,11,13,13,07,0.90
2015,11,13,13,08,1.10
2015,11,13,13,09,0.60
2015,11,13,13,10,1.70
2015,11,13,13,11,2.60
2015,11,13,13,12,0.90
2015,11,13,13,13,0.60
2015,11,13,13,14,1.30
2015,11,13,13,15,2.50
2015,11,13,13,16,2.40
2015,11,13,13,17,0.70
2015,11,13,13,18,1.30
2015,11,13,13,19,1.20
2015,11,13,13,20,1.30
2015,11,13,13,21,2.00
2015,11,13,13,22,3.90
2015,11,13,13,23,2.60
2015,11,13,13,24,1.70
2015,11,13,13,25,0.70
2015,11,13,13,26,1.00
2015,11,13,13,27,0.20
2015,11,13,13,28,0.90
2015,11,13,13,29,0.30
2015,11,13,13,30,0.50
2015,11,13,13,31,2.40
2015,11,13,13,32,2.70
2015,11,13,13,33,2.10
2015,11,13,13,34,2.30
2015,11,13,13,35,2.00
2015,11,13,13,36,1.60
2015,11,13,13,37,2.70
2015,11,13,13,38,1.40
2015,11,13,13,39,0.70
2015,11,13,13,40,3.70
2015,11,13,13,41,3.40
2015,11,13,13,42,2.40
2015,11,13,13,43,1.90
2015,11,13,13,44,1.60
2015,11,13,13,45,1.10
2015,11,13,13,46,1.50
2015,11,13,13,47,2.60
2015,11,13,13,48,3.60
2015,11,13,13,49,4.00
2015,11,13,13,50,2.70
2015,11,13,13,51,0.90
2015,11,13,13,52,1.40
2015,11,13,13,53,0.60
2015,11,13,13,54,1.30
2015,11,13,13,55,1.30
2015,11,13,13,56,1.90
2015,11,13,13,57,1.40
2015,11,13,13,58,3.90
2015,11,13,13,59,3.30
2015,11,13,14,00,1.20
2015,11,13,14,01,1.60
2015,11,13,14,02,1.50
2015,11,13,14,03,0.60
2015,11,13,14,04,2.30
2015,11,13,14,05,1.80
2015,11,13,14,06,2.30
2015,11,13,14,07,1.70
2015,11,13,14,08,2.60
2015,11,13,14,09,2.00
2015,11,13,14,10,2.60
2015,11,13,14,11,2.60
2015,11,13,14,12,1.40
2015,11,13,14,13,2.90
2015,11,13,14,14,2.20
2015,11,13,14,15,2.30
2015,11,13,14,16,2.40
2015,11,13,14,17,0.70
2015,11,13,14,18,2.30
2015,11,13,14,19,0.50
2015,11,13,14,20,0.50
2015,11,13,14,21,1.80
2015,11,13,14,22,2.30
2015,11,13,14,23,1.20
2015,11,13,14,24,1.60
2015,11,13,14,25,1.40
2015,11,13,14,26,2.00
2015,11,13,14,27,2.40
2015,11,13,14,28,2.00
2015,11,13,14,29,1.90
2015,11,13,14,30,2.80
2015,11,13,14,31,2.60
2015,11,13,14,32,2.30
2015,11,13,14,33,1.80
2015,11,13,14,34,0.70
2015,11,13,14,35,0.10
2015,11,13,14,36,0.40
2015,11,13,14,37,0.90
2015,11,13,14,38,0.50
2015,11,13,14,39,2.10
2015,11,13,14,40,1.20
2015,11,13,14,41,1.50
2015,11,13,14,42,1.00
2015,11,13,14,43,0.80
2015,11,13,14,44,0.00
2015,11,13,14,45,0.40
2015,11,13,14,46,0.90
2015,11,13,14,47,1.30
2015,11,13,14,48,1.30
2015,11,13,14,49,1.10
2015,11,13,14,50,1.90
2015,11,13,14,51,2.00
2015,11,13,14,52,2.60
2015,11,13,14,53,3.60
2015,11,13,14,54,2.20
2015,11,13,14,55,0.50
2015,11,13,14,56,0.10
2015,11,13,14,57,0.20
2015,11,13,14,58,0.10
2015,11,13,14,59,1.00
2015,11,13,15,00,1.90
2015,11,13,15,01,1.10
2015,11,13,15,02,0.80
2015,11,13,15,03,1.10
2015,11,13,15,04,1.00
2015,11,13,15,05,0.80
2015,11,13,15,06,0.20
2015,11,13,15,07,1.30
2015,11,13,15,08,2.00
2015,11,13,15,09,1.40
2015,11,13,15,10,2.30
2015,11,13,15,11,1.70
2015,11,13,15,12,0.80
2015,11,13,15,13,1.40
2015,11,13,15,14,1.90
2015,11,13,15,15,2.30
2015,11,13,15,16,2.80
2015,11,13,15,17,2.50
2015,11,13,15,18,3.00
2015,11,13,15,19,3.10
2015,11,13,15,20,2.80
2015,11,13,15,21,2.10
2015,11,13,15,22,2.60
2015,11,13,15,23,1.90
2015,11,13,15,24,2.00
2015,11,13,15,25,1.90
2015,11,13,15,26,1.70
2015,11,13,15,27,1.40
2015,11,13,15,28,0.70
2015,11,13,15,29,0.60
2015,11,13,15,30,1.10
2015,11,13,15,31,1.40
2015,11,13,15,32,1.60
2015,11,13,15,33,2.30
2015,11,13,15,34,1.70
2015,11,13,15,35,3.00
2015,11,13,15,36,2.90
2015,11,13,15,37,2.70
2015,11,13,15,38,3.20
2015,11,13,15,39,3.30
2015,11,13,15,40,3.30
2015,11,13,15,41,3.20
2015,11,13,15,42,3.20
2015,11,13,15,43,3.40
2015,11,13,15,44,3.20
2015,11,13,15,45,2.90
2015,11,13,15,46,3.00
2015,11,13,15,47,2.50
2015,11,13,15,48,2.60
2015,11,13,15,49,2.70
2015,11,13,15,50,2.60
2015,11,13,15,51,2.10
2015,11,13,15,52,2.60
2015,11,13,15,53,2.30
2015,11,13,15,54,2.80
2015,11,13,15,55,3.00
2015,11,13,15,56,1.40
2015,11,13,15,57,0.40
2015,11,13,15,58,0.20
2015,11,13,15,59,2.00
2015,11,13,16,00,1.70
2015,11,13,16,01,0.30
2015,11,13,16,02,1.30
2015,11,13,16,03,2.10
2015,11,13,16,04,2.30
2015,11,13,16,05,2.00
2015,11,13,16,06,1.90
2015,11,13,16,07,1.50
2015,11,13,16,08,1.10
2015,11,13,16,09,0.90
2015,11,13,16,10,0.30
2015,11,13,16,11,0.40
2015,11,13,16,12,0.60
2015,11,13,16,13,0.10
2015,11,13,16,14,1.00
2015,11,13,16,15,0.90
2015,11,13,16,16,0.80
2015,11,13,16,17,2.00
2015,11,13,16,18,2.20
2015,11,13,16,19,2.60
2015,11,13,16,20,1.30
2015,11,13,16,21,1.30
2015,11,13,16,22,1.10
2015,11,13,16,23,0.70
2015,11,13,16,24,0.80
2015,11,13,16,25,2.00
2015,11,13,16,26,1.90
2015,11,13,16,27,1.50
2015,11,13,16,28,2.10
2015,11,13,16,29,3.10
2015,11,13,16,30,2.90
2015,11,13,16,31,2.90
2015,11,13,16,32,2.60
2015,11,13,16,33,1.00
2015,11,13,16,34,1.30
2015,11,13,16,35,1.90
2015,11,13,16,36,1.60
2015,11,13,16,37,1.90
2015,11,13,16,38,3.00
2015,11,13,16,39,1.90
2015,11,13,16,40,0.90
2015,11,13,16,41,1.10
2015,11,13,16,42,0.40
2015,11,13,16,43,0.20
2015,11,13,16,44,0.40
2015,11,13,16,45,0.70
2015,11,13,16,46,2.40
2015,11,13,16,47,3.50
2015,11,13,16,48,3.70
2015,11,13,16,49,3.90
2015,11,13,16,50,1.90
2015,11,13,16,51,1.60
2015,11,13,16,52,1.40
2015,11,13,16,53,1.00
2015,11,13,16,54,2.40
2015,11,13,16,55,2.70
2015,11,13,16,56,3.70
2015,11,13,16,57,2.40
2015,11,13,16,58,3.20
2015,11,13,16,59,3.60
2015,11,13,17,00,3.00
2015,11,13,17,01,1.60
2015,11,13,17,02,1.00
2015,11,13,17,03,0.80
2015,11,13,17,04,1.60
2015,11,13,17,05,2.10
2015,11,13,17,06,2.60
2015,11,13,17,07,2.10
2015,11,13,17,08,2.40
2015,11,13,17,09,1.40
2015,11,13,17,10,0.10
2015,11,13,17,11,0.10
2015,11,13,17,12,0.50
2015,11,13,17,13,1.80
2015,11,13,17,14,1.80
2015,11,13,17,15,1.60
2015,11,13,17,16,1.40
2015,11,13,17,17,2.20
2015,11,13,17,18,1.10
2015,11,13,17,19,1.90
2015,11,13,17,20,1.70
2015,11,13,17,21,2.90
2015,11,13,17,22,3.10
2015,11,13,17,23,3.50
2015,11,13,17,24,3.20
2015,11,13,17,25,2.60
2015,11,13,17,26,2.50
2015,11,13,17,27,3.50
2015,11,13,17,28,3.30
2015,11,13,17,29,3.10
2015,11,13,17,30,4.00
2015,11,13,17,31,3.50
2015,11,13,17,32,2.90
2015,11,13,17,33,2.40
2015,11,13,17,34,3.10
2015,11,13,17,35,4.20
2015,11,13,17,36,3.20
2015,11,13,17,37,3.10
2015,11,13,17,38,3.50
2015,11,13,17,39,2.30
2015,11,13,17,40,2.80
2015,11,13,17,41,3.10
2015,11,13,17,42,3.30
2015,11,13,17,43,4.20
2015,11,13,17,44,3.60
2015,11,13,17,45,4.80
2015,11,13,17,46,3.30
2015,11,13,17,47,3.20
2015,11,13,17,48,2.70
2015,11,13,17,49,2.80
2015,11,13,17,50,1.70
2015,11,13,17,51,1.80
2015,11,13,17,52,2.40
2015,11,13,17,53,1.70
2015,11,13,17,54,1.90
2015,11,13,17,55,2.10
2015,11,13,17,56,1.90
2015,11,13,17,57,1.60
2015,11,13,17,58,1.40
2015,11,13,17,59,2.00
2015,11,13,18,00,2.10
2015,11,13,18,01,1.30
2015,11,13,18,02,1.40
2015,11,13,18,03,0.50
2015,11,13,18,04,1.00
2015,11,13,18,05,0.70
2015,11,13,18,06,2.40
2015,11,13,18,07,2.30